When you browse on this site, cookies collect data to enhance your experience and personalize the content and advertising you see.
Visit our Privacy Policy to learn more. By continuing to use the site, you agree to this use of cookies and data.

Hourly Weather Pokrovsk

Today, 10 July, Friday

Time Temperature Precipitation Wind Pressure Humidity
00:00 +20°C° 0 mm 3 mps 741 mmHg 60%
01:00 +19°C° 0.3 mm 3 mps 741 mmHg 68%
02:00 +19°C° 0.3 mm 3 mps 740 mmHg 75%
03:00 +17°C° 0 mm 3 mps 741 mmHg 87%
04:00 +17°C° 0.9 mm 3 mps 741 mmHg 89%
05:00 +16°C° 0.9 mm 3 mps 741 mmHg 92%
06:00 +16°C° 0.9 mm 3 mps 741 mmHg 94%
07:00 +15°C° 0.6 mm 4 mps 741 mmHg 93%
08:00 +15°C° 0.6 mm 4 mps 741 mmHg 93%
09:00 +15°C° 0 mm 4 mps 741 mmHg 93%
10:00 +15°C° 0.4 mm 4 mps 742 mmHg 93%
11:00 +15°C° 0.4 mm 4 mps 742 mmHg 94%
12:00 +15°C° 0.4 mm 4 mps 742 mmHg 94%
13:00 +15°C° 0 mm 4 mps 742 mmHg 93%
14:00 +15°C° 0 mm 4 mps 743 mmHg 92%
15:00 +17°C° 0 mm 4 mps 743 mmHg 94%
16:00 +17°C° 0 mm 4 mps 743 mmHg 92%
17:00 +17°C° 0 mm 3 mps 744 mmHg 90%
18:00 +17°C° 0 mm 3 mps 744 mmHg 89%
19:00 +16°C° 0 mm 3 mps 744 mmHg 89%
20:00 +16°C° 0 mm 3 mps 744 mmHg 89%
21:00 +16°C° 0 mm 2 mps 745 mmHg 89%
22:00 +16°C° 0 mm 2 mps 745 mmHg 91%
23:00 +15°C° 0 mm 2 mps 745 mmHg 94%

Tomorrow, 11 July, Saturday

Time Temperature Precipitation Wind Pressure Humidity
00:00 +14°C° 0 mm 1 mps 745 mmHg 96%
01:00 +14°C° 0 mm 1 mps 745 mmHg 97%
02:00 +14°C° 0 mm 2 mps 745 mmHg 97%
03:00 +14°C° 0 mm 2 mps 745 mmHg 97%
04:00 +14°C° 0 mm 2 mps 745 mmHg 95%
05:00 +15°C° 0 mm 2 mps 745 mmHg 93%
06:00 +16°C° 0 mm 1 mps 746 mmHg 90%
07:00 +18°C° 0 mm 2 mps 746 mmHg 84%
08:00 +19°C° 0 mm 2 mps 746 mmHg 77%
09:00 +21°C° 0 mm 2 mps 746 mmHg 70%
10:00 +24°C° 0 mm 2 mps 745 mmHg 65%
11:00 +26°C° 0 mm 2 mps 745 mmHg 59%
12:00 +28°C° 0 mm 2 mps 745 mmHg 54%
13:00 +29°C° 0 mm 2 mps 745 mmHg 51%
14:00 +30°C° 0 mm 2 mps 744 mmHg 48%
15:00 +30°C° 0 mm 1 mps 744 mmHg 46%
16:00 +30°C° 0 mm 1 mps 744 mmHg 48%
17:00 +30°C° 0 mm 1 mps 744 mmHg 50%
18:00 +30°C° 0 mm 1 mps 744 mmHg 52%
19:00 +28°C° 0 mm 2 mps 744 mmHg 60%
20:00 +26°C° 0 mm 2 mps 744 mmHg 67%
21:00 +25°C° 0 mm 2 mps 744 mmHg 75%
22:00 +23°C° 0.1 mm 2 mps 744 mmHg 79%
23:00 +21°C° 0.1 mm 2 mps 744 mmHg 84%

Day after tomorrow, 12 July, Sunday

Time Temperature Precipitation Wind Pressure Humidity
00:00 +20°C° 0.1 mm 2 mps 745 mmHg 89%
01:00 +20°C° 0.1 mm 2 mps 745 mmHg 89%
02:00 +19°C° 0.1 mm 2 mps 745 mmHg 90%
03:00 +20°C° 0.1 mm 1 mps 744 mmHg 91%
04:00 +20°C° 0 mm 2 mps 744 mmHg 87%
05:00 +21°C° 0 mm 2 mps 744 mmHg 84%
06:00 +23°C° 0 mm 2 mps 744 mmHg 81%
07:00 +25°C° 0 mm 2 mps 744 mmHg 74%
08:00 +27°C° 0 mm 2 mps 744 mmHg 68%
09:00 +29°C° 0 mm 2 mps 744 mmHg 62%
10:00 +30°C° 0 mm 2 mps 744 mmHg 57%
11:00 +32°C° 0 mm 2 mps 744 mmHg 53%
12:00 +35°C° 0 mm 2 mps 743 mmHg 49%
13:00 +36°C° 0 mm 2 mps 743 mmHg 45%
14:00 +36°C° 0 mm 2 mps 743 mmHg 42%
15:00 +37°C° 0 mm 2 mps 742 mmHg 39%
16:00 +37°C° 0 mm 2 mps 742 mmHg 42%
17:00 +36°C° 0 mm 2 mps 742 mmHg 45%
18:00 +35°C° 0 mm 2 mps 742 mmHg 48%
19:00 +31°C° 0.4 mm 2 mps 742 mmHg 61%
20:00 +28°C° 0.4 mm 3 mps 743 mmHg 73%
21:00 +25°C° 0.4 mm 3 mps 743 mmHg 85%
22:00 +23°C° 0 mm 2 mps 743 mmHg 89%
23:00 +22°C° 0 mm 1 mps 744 mmHg 93%

13 July, Monday

Time Temperature Precipitation Wind Pressure Humidity
00:00 +21°C° 0 mm 1 mps 744 mmHg 97%
01:00 +21°C° 0 mm 1 mps 744 mmHg 96%
02:00 +20°C° 0 mm 1 mps 744 mmHg 96%
03:00 +20°C° 0 mm 1 mps 744 mmHg 96%
04:00 +21°C° 0 mm 1 mps 744 mmHg 93%
05:00 +20°C° 0 mm 0 mps 744 mmHg 90%
06:00 +21°C° 0 mm 0 mps 744 mmHg 88%
07:00 +24°C° 0 mm 0 mps 744 mmHg 78%
08:00 +26°C° 0 mm 0 mps 744 mmHg 69%
09:00 +28°C° 0 mm 0 mps 744 mmHg 60%
10:00 +30°C° 0 mm 0 mps 744 mmHg 52%
11:00 +32°C° 0 mm 0 mps 744 mmHg 45%
12:00 +33°C° 0 mm 0 mps 744 mmHg 38%
13:00 +36°C° 0 mm 1 mps 743 mmHg 37%
14:00 +36°C° 0 mm 1 mps 743 mmHg 35%
15:00 +36°C° 0 mm 1 mps 742 mmHg 34%
16:00 +35°C° 0 mm 1 mps 742 mmHg 37%
17:00 +36°C° 0 mm 2 mps 742 mmHg 40%
18:00 +35°C° 0 mm 2 mps 742 mmHg 44%
19:00 +30°C° 0.5 mm 2 mps 742 mmHg 59%
20:00 +26°C° 0.5 mm 3 mps 743 mmHg 75%
21:00 +21°C° 0.5 mm 3 mps 743 mmHg 90%
22:00 +20°C° 0 mm 2 mps 743 mmHg 92%
23:00 +21°C° 0 mm 1 mps 743 mmHg 94%

14 July, Tuesday

Time Temperature Precipitation Wind Pressure Humidity
00:00 +20°C° 0 mm 1 mps 743 mmHg 96%
01:00 +20°C° 0 mm 1 mps 743 mmHg 96%
02:00 +20°C° 0 mm 1 mps 743 mmHg 96%
03:00 +19°C° 0 mm 1 mps 743 mmHg 97%
04:00 +20°C° 0 mm 1 mps 743 mmHg 95%
05:00 +21°C° 0 mm 1 mps 743 mmHg 93%
06:00 +22°C° 0 mm 1 mps 744 mmHg 91%
07:00 +23°C° 0 mm 2 mps 744 mmHg 79%
08:00 +25°C° 0 mm 2 mps 744 mmHg 68%
09:00 +27°C° 0 mm 2 mps 744 mmHg 56%
10:00 +28°C° 0 mm 2 mps 744 mmHg 50%
11:00 +29°C° 0 mm 2 mps 743 mmHg 44%
12:00 +30°C° 0 mm 2 mps 743 mmHg 39%
13:00 +31°C° 0 mm 2 mps 743 mmHg 37%
14:00 +31°C° 0 mm 3 mps 743 mmHg 35%
15:00 +31°C° 0 mm 3 mps 742 mmHg 34%
16:00 +31°C° 0 mm 3 mps 742 mmHg 36%
17:00 +31°C° 0 mm 2 mps 742 mmHg 38%
18:00 +30°C° 0 mm 2 mps 742 mmHg 40%
19:00 +28°C° 0 mm 2 mps 742 mmHg 49%
20:00 +26°C° 0 mm 2 mps 741 mmHg 57%
21:00 +24°C° 0 mm 1 mps 741 mmHg 66%
22:00 +22°C° 0 mm 1 mps 741 mmHg 68%
23:00 +21°C° 0 mm 1 mps 742 mmHg 71%

15 July, Wednesday

Time Temperature Precipitation Wind Pressure Humidity
00:00 +20°C° 0 mm 1 mps 742 mmHg 74%
01:00 +19°C° 0 mm 1 mps 742 mmHg 75%
02:00 +19°C° 0 mm 1 mps 742 mmHg 76%
03:00 +18°C° 0 mm 1 mps 742 mmHg 78%
04:00 +19°C° 0 mm 1 mps 742 mmHg 75%
05:00 +20°C° 0 mm 1 mps 742 mmHg 73%
06:00 +21°C° 0 mm 1 mps 742 mmHg 71%
07:00 +23°C° 0 mm 1 mps 742 mmHg 64%
08:00 +25°C° 0 mm 1 mps 742 mmHg 57%
09:00 +27°C° 0 mm 1 mps 742 mmHg 49%
10:00 +28°C° 0 mm 1 mps 742 mmHg 45%
11:00 +30°C° 0 mm 1 mps 742 mmHg 41%
12:00 +31°C° 0 mm 1 mps 741 mmHg 37%
13:00 +32°C° 0 mm 1 mps 741 mmHg 36%
14:00 +32°C° 0 mm 1 mps 741 mmHg 34%
15:00 +33°C° 0 mm 1 mps 741 mmHg 32%
16:00 +32°C° 0 mm 1 mps 741 mmHg 34%
17:00 +32°C° 0 mm 1 mps 741 mmHg 36%
18:00 +31°C° 0 mm 1 mps 740 mmHg 38%
19:00 +29°C° 0 mm 1 mps 740 mmHg 46%
20:00 +26°C° 0 mm 1 mps 741 mmHg 54%
21:00 +24°C° 0 mm 1 mps 741 mmHg 62%
22:00 +21°C° 0 mm 0 mps 741 mmHg 65%
23:00 +20°C° 0 mm 0 mps 741 mmHg 69%
Show more